TimeCDT,TemperatureF,Dew PointF,Humidity,Sea Level PressureIn,VisibilityMPH,Wind Direction,Wind SpeedMPH,Gust SpeedMPH,PrecipitationIn,Events,Conditions,WindDirDegrees,DateUTC
12:15 AM,58.3,42.6,56,30.01,3.0,NNE,8.1,-,N/A,,Haze,20,2013-03-19 05:15:00
12:35 AM,57.7,42.4,57,30.00,2.5,NNE,6.9,-,N/A,,Haze,20,2013-03-19 05:35:00
12:55 AM,57.4,42.1,57,30.00,10.0,NE,8.1,-,N/A,,Clear,40,2013-03-19 05:55:00
1:15 AM,57.0,41.4,56,30.00,10.0,NE,8.1,-,N/A,,Clear,40,2013-03-19 06:15:00
1:35 AM,56.7,41.0,56,30.00,10.0,NE,8.1,-,N/A,,Clear,40,2013-03-19 06:35:00
1:55 AM,56.1,41.0,57,30.01,10.0,NNE,5.8,-,N/A,,Clear,30,2013-03-19 06:55:00
2:15 AM,54.9,40.8,59,30.00,10.0,NNE,6.9,-,N/A,,Clear,30,2013-03-19 07:15:00
2:35 AM,55.4,40.5,57,29.99,10.0,NE,8.1,-,N/A,,Clear,50,2013-03-19 07:35:00
2:55 AM,55.0,40.5,58,29.99,10.0,ENE,5.8,-,N/A,,Clear,70,2013-03-19 07:55:00
3:15 AM,54.9,40.5,58,29.99,10.0,NE,5.8,-,N/A,,Clear,40,2013-03-19 08:15:00
3:35 AM,54.1,41.0,61,29.99,10.0,ENE,6.9,-,N/A,,Clear,60,2013-03-19 08:35:00
3:55 AM,54.0,41.2,62,29.98,10.0,ENE,5.8,-,N/A,,Clear,60,2013-03-19 08:55:00
4:15 AM,53.1,41.4,64,29.98,10.0,ENE,5.8,-,N/A,,Clear,70,2013-03-19 09:15:00
4:35 AM,53.6,42.3,65,29.96,10.0,East,6.9,-,N/A,,Clear,80,2013-03-19 09:35:00
4:55 AM,53.1,42.8,68,29.96,10.0,East,6.9,-,N/A,,Clear,90,2013-03-19 09:55:00
5:15 AM,52.3,43.3,71,29.97,10.0,East,4.6,-,N/A,,Clear,80,2013-03-19 10:15:00
5:35 AM,52.0,43.9,74,29.97,10.0,East,8.1,-,N/A,,Clear,90,2013-03-19 10:35:00
5:55 AM,51.8,44.2,75,29.99,10.0,East,5.8,-,N/A,,Clear,90,2013-03-19 10:55:00
6:15 AM,51.8,44.8,77,29.99,10.0,ENE,5.8,-,N/A,,Clear,70,2013-03-19 11:15:00
6:35 AM,50.4,44.4,80,29.99,10.0,East,4.6,-,N/A,,Clear,80,2013-03-19 11:35:00
6:55 AM,50.4,45.1,82,30.00,10.0,East,6.9,-,N/A,,Clear,80,2013-03-19 11:55:00
7:15 AM,50.9,45.7,82,30.00,10.0,East,6.9,-,N/A,,Clear,80,2013-03-19 12:15:00
7:35 AM,50.5,46.0,85,30.02,10.0,ENE,4.6,-,N/A,,Clear,60,2013-03-19 12:35:00
7:55 AM,51.1,46.4,84,30.02,10.0,ENE,5.8,-,N/A,,Clear,70,2013-03-19 12:55:00
8:15 AM,52.0,46.6,82,30.03,10.0,East,8.1,-,N/A,,Clear,80,2013-03-19 13:15:00
8:35 AM,52.7,46.4,79,30.05,10.0,ENE,5.8,-,N/A,,Clear,70,2013-03-19 13:35:00
8:55 AM,53.2,46.6,78,30.06,10.0,ENE,3.5,-,N/A,,Clear,60,2013-03-19 13:55:00
9:15 AM,54.5,46.6,75,30.08,10.0,ENE,4.6,-,N/A,,Clear,70,2013-03-19 14:15:00
9:35 AM,55.8,46.0,70,30.08,10.0,East,4.6,-,N/A,,Clear,80,2013-03-19 14:35:00
9:55 AM,57.4,45.3,64,30.08,10.0,East,5.8,-,N/A,,Clear,80,2013-03-19 14:55:00
10:15 AM,59.4,44.1,57,30.08,10.0,East,9.2,-,N/A,,Clear,100,2013-03-19 15:15:00
10:35 AM,59.9,42.1,52,30.08,10.0,ENE,11.5,16.1,N/A,,Clear,70,2013-03-19 15:35:00
10:55 AM,61.0,41.2,48,30.08,10.0,East,10.4,17.3,N/A,,Clear,100,2013-03-19 15:55:00
11:15 AM,62.6,40.3,44,30.07,10.0,ENE,12.7,-,N/A,,Clear,70,2013-03-19 16:15:00
11:35 AM,64.0,41.0,43,30.07,10.0,East,10.4,-,N/A,,Clear,90,2013-03-19 16:35:00
11:55 AM,64.0,40.5,42,30.06,10.0,ENE,13.8,17.3,N/A,,Clear,60,2013-03-19 16:55:00
12:15 PM,65.3,40.8,41,30.05,10.0,East,5.8,-,N/A,,Clear,80,2013-03-19 17:15:00
12:35 PM,66.6,40.6,39,30.04,10.0,ESE,9.2,17.3,N/A,,Clear,110,2013-03-19 17:35:00
12:55 PM,67.6,41.7,39,30.04,10.0,ENE,11.5,-,N/A,,Clear,70,2013-03-19 17:55:00
1:15 PM,67.6,41.2,38,30.03,10.0,East,6.9,-,N/A,,Clear,100,2013-03-19 18:15:00
1:35 PM,69.8,42.6,37,30.02,10.0,East,8.1,-,N/A,,Scattered Clouds,100,2013-03-19 18:35:00
1:55 PM,70.5,43.7,38,30.02,10.0,ESE,8.1,-,N/A,,Scattered Clouds,110,2013-03-19 18:55:00
2:15 PM,70.7,43.7,38,30.02,10.0,East,5.8,-,N/A,,Scattered Clouds,80,2013-03-19 19:15:00
2:35 PM,71.4,43.7,37,30.00,10.0,NE,5.8,-,N/A,,Scattered Clouds,50,2013-03-19 19:35:00
2:55 PM,71.6,44.8,38,29.99,10.0,NNE,5.8,-,N/A,,Clear,20,2013-03-19 19:55:00
3:15 PM,71.8,45.0,38,29.98,10.0,East,4.6,-,N/A,,Clear,100,2013-03-19 20:15:00
3:35 PM,71.4,45.0,39,29.98,10.0,ENE,4.6,-,N/A,,Clear,60,2013-03-19 20:35:00
3:55 PM,72.1,45.7,39,29.98,10.0,East,5.8,-,N/A,,Clear,80,2013-03-19 20:55:00
4:15 PM,73.8,46.4,38,29.98,10.0,ENE,6.9,-,N/A,,Clear,60,2013-03-19 21:15:00
4:35 PM,73.0,46.4,39,29.98,10.0,East,6.9,-,N/A,,Clear,90,2013-03-19 21:35:00
4:55 PM,72.5,46.4,39,29.97,10.0,NE,5.8,-,N/A,,Clear,50,2013-03-19 21:55:00
5:15 PM,71.8,46.6,41,29.97,10.0,ENE,5.8,-,N/A,,Clear,70,2013-03-19 22:15:00
5:35 PM,71.6,46.4,41,29.97,7.0,NE,6.9,-,N/A,,Clear,50,2013-03-19 22:35:00
5:55 PM,70.9,46.4,42,29.97,7.0,NE,5.8,-,N/A,,Clear,40,2013-03-19 22:55:00
6:15 PM,70.7,46.6,42,29.97,7.0,NE,5.8,-,N/A,,Clear,50,2013-03-19 23:15:00
6:35 PM,70.2,46.8,43,29.97,7.0,NE,9.2,-,N/A,,Clear,50,2013-03-19 23:35:00
6:55 PM,69.1,44.2,41,29.98,10.0,NNE,5.8,-,N/A,,Clear,30,2013-03-19 23:55:00
7:15 PM,68.2,44.6,43,29.99,10.0,North,6.9,-,N/A,,Clear,10,2013-03-20 00:15:00
7:35 PM,67.5,44.1,43,29.99,10.0,NE,8.1,-,N/A,,Clear,40,2013-03-20 00:35:00
7:55 PM,67.1,44.1,43,29.99,10.0,NE,6.9,-,N/A,,Clear,40,2013-03-20 00:55:00
8:15 PM,66.4,44.1,44,30.01,10.0,North,8.1,-,N/A,,Scattered Clouds,10,2013-03-20 01:15:00
8:35 PM,66.4,42.8,42,30.01,10.0,NNE,9.2,-,N/A,,Mostly Cloudy,30,2013-03-20 01:35:00
8:55 PM,66.2,42.1,41,30.01,10.0,NE,8.1,16.1,N/A,,Scattered Clouds,40,2013-03-20 01:55:00
9:15 PM,65.7,41.2,41,30.00,10.0,ENE,11.5,17.3,N/A,,Clear,60,2013-03-20 02:15:00
9:35 PM,65.3,40.1,40,30.00,10.0,ENE,9.2,-,N/A,,Scattered Clouds,60,2013-03-20 02:35:00
9:55 PM,65.3,39.2,38,30.00,10.0,ENE,12.7,19.6,N/A,,Mostly Cloudy,70,2013-03-20 02:55:00
10:15 PM,64.9,38.8,38,29.99,10.0,ENE,10.4,19.6,N/A,,Overcast,70,2013-03-20 03:15:00
10:35 PM,64.4,40.3,41,30.11,10.0,WNW,18.4,-,N/A,Rain,Light Rain,290,2013-03-20 03:35:00
10:55 PM,51.4,48.4,89,30.12,2.5,North,17.3,26.5,0.20,Rain,Heavy Rain,10,2013-03-20 03:55:00
11:15 PM,50.9,49.6,95,30.11,10.0,NNE,9.2,-,0.02,Rain,Rain,30,2013-03-20 04:15:00
11:35 PM,51.3,50.0,95,30.11,10.0,North,10.4,-,0.03,Rain,Light Rain,10,2013-03-20 04:35:00
11:55 PM,52.2,48.2,86,30.11,10.0,ENE,6.9,-,0.03,,Mostly Cloudy,70,2013-03-20 04:55:00